Weather History for Moorhead, MN

Change the Weather History Date:

Tuesday, January 21, 2014

  Actual Average (KFAR) Record (KFAR)
Temperature  
Mean Temperature -7 °F 9 °F  
Max Temperature 8 °F 18 °F 52 °F (1900)
Min Temperature -22 °F -1 °F -41 °F (1888)
Degree Days  
Heating Degree Days 72 56  
Month to date heating degree days 1172  
Since 1 July heating degree days 4712  
Cooling Degree Days 0 0  
Month to date cooling degree days 0  
Year to date cooling degree days 0  
Moisture  
Dew Point -10 °F    
Average Humidity 84    
Maximum Humidity 92    
Minimum Humidity 71    
Precipitation  
Precipitation 0.00 in 0.02 in 0.57 in (1952)
Month to date precipitation 0.51  
Year to date precipitation 0.51  
Snow  
Snow 0.00 in 0.30 in 6.10 in (1952)
Month to date snowfall 8.1  
Since 1 July snowfall 27.9  
Snow Depth -    
Sea Level Pressure  
Sea Level Pressure 30.20 in    
Wind  
Wind Speed 8 mph (South)    
Max Wind Speed 20 mph    
Max Gust Speed 25 mph    
Visibility 7 miles    
Events Snow    
T = Trace of Precipitation, MM = Missing Value Source: NWS Daily Summary

Daily Weather History Graph

Daily Weather History Graph

Search for Another Location

Airport:

Trip Planner

Search our weather history database for the weather conditions in past years. The results will help you decide how hot, cold, wet, or windy it might be!

Date:

Astronomy

Jan. 21, 2014 Rise Set
Actual Time 8:02 AM CST 5:13 PM CST
Civil Twilight 7:29 AM CST 5:47 PM CST
Nautical Twilight 6:52 AM CST 6:24 PM CST
Astronomical Twilight 6:16 AM CST 7:00 PM CST
Moon 11:11 PM CST (1/21) 10:11 AM CST (1/21)
Length of Visible Light 10h 17m
Length of Day
9h 10m
Waning Gibbous, 74% of the Moon is Illuminated
Jan 21
Waning Gibbous
Jan 23
Last Quarter
Jan 30
New
Feb 6
First Quarter
Feb 14
Full

Hourly Weather History & Observations

Time (CST) Temp. Windchill Dew Point Humidity Pressure Visibility Wind Dir Wind Speed Gust Speed Precip Events Conditions
12:15 AM -18.4 °F - -22.0 °F 84% 30.54 in 10.0 mi Calm Calm - N/A   Clear
12:35 AM -18.4 °F -28.9 °F -23.8 °F 76% 30.53 in 10.0 mi South 3.5 mph - N/A   Clear
12:54 AM -22.0 °F -39.4 °F -25.6 °F 83% 30.53 in 10.0 mi SSW 6.9 mph - N/A   Clear
1:15 AM -20.2 °F -37.3 °F -23.8 °F 83% 30.53 in 10.0 mi SSW 6.9 mph - N/A   Clear
1:35 AM -18.4 °F -33.4 °F -23.8 °F 76% 30.51 in 10.0 mi SSW 5.8 mph - N/A   Clear
1:54 AM -20.2 °F -30.9 °F -25.6 °F 76% 30.51 in 10.0 mi South 3.5 mph - N/A   Clear
2:15 AM -18.4 °F - -23.8 °F 76% 30.50 in 10.0 mi Calm Calm - N/A   Clear
2:34 AM -18.4 °F -31.4 °F -22.0 °F 84% 30.49 in 10.0 mi South 4.6 mph - N/A   Clear
2:55 AM -20.2 °F -33.5 °F -23.8 °F 83% 30.48 in 10.0 mi South 4.6 mph - N/A   Clear
3:15 AM -20.2 °F -33.5 °F -25.6 °F 76% 30.47 in 10.0 mi South 4.6 mph - N/A   Clear
3:34 AM -20.2 °F -37.3 °F -25.6 °F 76% 30.45 in 10.0 mi SSE 6.9 mph - N/A   Clear
3:55 AM -20.2 °F -37.3 °F -25.6 °F 76% 30.45 in 10.0 mi SSE 6.9 mph - N/A   Clear
4:15 AM -20.2 °F -33.5 °F -23.8 °F 83% 30.44 in 10.0 mi SSE 4.6 mph - N/A   Clear
4:34 AM -20.2 °F -33.5 °F -23.8 °F 83% 30.44 in 10.0 mi South 4.6 mph - N/A   Clear
4:55 AM -18.4 °F - -23.8 °F 76% 30.42 in 10.0 mi Calm Calm - N/A   Clear
5:15 AM -18.4 °F -31.4 °F -23.8 °F 76% 30.41 in 10.0 mi SSE 4.6 mph - N/A   Clear
5:35 AM -16.6 °F -31.3 °F -20.2 °F 84% 30.40 in 10.0 mi SSE 5.8 mph - N/A   Clear
5:55 AM -16.6 °F -32.9 °F -20.2 °F 84% 30.38 in 10.0 mi SSE 6.9 mph - N/A   Clear
6:14 AM -16.6 °F -34.4 °F -20.2 °F 84% 30.35 in 10.0 mi SSE 8.1 mph - N/A   Clear
6:35 AM -14.8 °F -30.8 °F -18.4 °F 84% 30.36 in 10.0 mi SSE 6.9 mph - N/A   Clear
6:55 AM -14.8 °F -30.8 °F -18.4 °F 84% 30.35 in 10.0 mi SSE 6.9 mph - N/A   Scattered Clouds
7:14 AM -13.0 °F -28.6 °F -16.6 °F 84% 30.33 in 10.0 mi SSE 6.9 mph - N/A   Mostly Cloudy
7:35 AM -11.2 °F -29.0 °F -16.6 °F 77% 30.31 in 10.0 mi South 9.2 mph - N/A   Mostly Cloudy
7:55 AM -11.2 °F -30.1 °F -16.6 °F 77% 30.29 in 10.0 mi South 10.4 mph - N/A   Scattered Clouds
8:14 AM -11.2 °F -30.1 °F -16.6 °F 77% 30.29 in 10.0 mi South 10.4 mph - N/A   Scattered Clouds
8:35 AM -11.2 °F -30.1 °F -14.8 °F 84% 30.27 in 10.0 mi South 10.4 mph - N/A   Clear
8:55 AM -9.4 °F -27.9 °F -14.8 °F 77% 30.26 in 10.0 mi South 10.4 mph - N/A   Clear
9:14 AM -9.4 °F -31.4 °F -14.8 °F 77% 30.24 in 10.0 mi South 15.0 mph 19.6 mph N/A   Clear
9:35 AM -9.4 °F -31.4 °F -14.8 °F 77% 30.23 in 10.0 mi South 15.0 mph - N/A   Scattered Clouds
9:55 AM -9.4 °F -31.4 °F -14.8 °F 77% 30.22 in 10.0 mi South 15.0 mph 20.7 mph N/A   Scattered Clouds
10:14 AM -7.6 °F -29.8 °F -14.8 °F 71% 30.22 in 10.0 mi South 16.1 mph - N/A   Scattered Clouds
10:35 AM -7.6 °F -29.8 °F -13.0 °F 77% 30.21 in 7.0 mi South 16.1 mph 20.7 mph N/A   Mostly Cloudy
10:55 AM -7.6 °F -30.5 °F -11.2 °F 84% 30.19 in 7.0 mi South 17.3 mph - N/A   Mostly Cloudy
11:14 AM -5.8 °F -28.8 °F -11.2 °F 77% 30.17 in 2.5 mi SSE 18.4 mph 24.2 mph N/A   Haze
11:35 AM -5.8 °F -27.5 °F -11.2 °F 77% 30.16 in 1.0 mi South 16.1 mph 21.9 mph N/A   Overcast
11:55 AM -5.8 °F -28.8 °F -9.4 °F 84% 30.15 in 1.2 mi South 18.4 mph - N/A Snow Light Snow
12:14 PM -5.8 °F -28.2 °F -9.4 °F 84% 30.14 in 0.8 mi South 17.3 mph 21.9 mph N/A   Overcast
12:35 PM -4.0 °F -25.8 °F -7.6 °F 85% 30.11 in 1.0 mi South 17.3 mph 25.3 mph N/A   Overcast
12:55 PM -4.0 °F -27.0 °F -7.6 °F 85% 30.09 in 0.2 mi South 19.6 mph 24.2 mph N/A Snow Light Snow
1:14 PM -2.2 °F -22.9 °F -7.6 °F 78% 30.07 in 0.2 mi South 16.1 mph 24.2 mph N/A Snow Snow
1:35 PM -2.2 °F -23.5 °F -5.8 °F 85% 30.05 in 0.5 mi SSE 17.3 mph 23.0 mph N/A Snow Light Snow
1:55 PM -2.2 °F -22.2 °F -5.8 °F 85% 30.05 in 0.2 mi South 15.0 mph - N/A Snow Light Snow
2:14 PM -2.2 °F -24.1 °F -5.8 °F 85% 30.04 in 0.5 mi South 18.4 mph 21.9 mph N/A Snow Light Snow
2:35 PM -0.4 °F -21.7 °F -4.0 °F 85% 30.01 in 1.0 mi South 18.4 mph 24.2 mph N/A Snow Light Snow
2:55 PM -0.4 °F -19.2 °F -4.0 °F 85% 30.02 in 2.0 mi South 13.8 mph 17.3 mph N/A   Overcast
3:15 PM -0.4 °F -18.4 °F -4.0 °F 85% 30.02 in 2.0 mi South 12.7 mph 19.6 mph N/A Snow Light Snow
3:35 PM -0.4 °F -18.4 °F -2.2 °F 92% 30.03 in 3.0 mi South 12.7 mph 17.3 mph N/A   Overcast
3:54 PM -0.4 °F -17.6 °F -2.2 °F 92% 30.03 in 4.0 mi South 11.5 mph 17.3 mph N/A   Overcast
4:15 PM 1.4 °F -13.5 °F -2.2 °F 85% 30.03 in 4.0 mi South 9.2 mph 17.3 mph N/A   Overcast
4:35 PM 1.4 °F -15.3 °F -2.2 °F 85% 30.02 in 4.0 mi South 11.5 mph 16.1 mph N/A   Overcast
4:54 PM 1.4 °F -12.5 °F -2.2 °F 85% 30.03 in 2.5 mi South 8.1 mph - N/A Snow Light Snow
5:15 PM 1.4 °F -14.5 °F -0.4 °F 92% 30.01 in 2.0 mi South 10.4 mph 16.1 mph N/A Snow Light Snow
5:35 PM 1.4 °F -13.5 °F -0.4 °F 92% 30.01 in 4.0 mi South 9.2 mph - N/A Snow Light Snow
5:54 PM 1.4 °F -12.5 °F -0.4 °F 92% 30.03 in 7.0 mi South 8.1 mph - N/A Snow Light Snow
6:15 PM 3.2 °F -9.1 °F -0.4 °F 85% 30.02 in 5.0 mi South 6.9 mph - N/A Snow Light Snow
6:35 PM 3.2 °F -12.2 °F -0.4 °F 85% 30.02 in 5.0 mi South 10.4 mph - N/A Snow Light Snow
6:54 PM 3.2 °F -11.3 °F 1.4 °F 92% 30.02 in 7.0 mi SSW 9.2 mph - N/A Snow Light Snow
7:15 PM 3.2 °F -7.8 °F 1.4 °F 92% 30.02 in 5.0 mi South 5.8 mph - N/A Snow Light Snow
7:35 PM 3.2 °F -4.2 °F 1.4 °F 92% 30.03 in 5.0 mi SSW 3.5 mph - N/A Snow Light Snow
7:55 PM 3.2 °F -6.2 °F 1.4 °F 92% 30.02 in 3.0 mi SSW 4.6 mph - N/A Snow Light Snow
8:15 PM 3.2 °F -6.2 °F 1.4 °F 92% 30.01 in 4.0 mi South 4.6 mph - N/A Snow Light Snow
8:34 PM 5.0 °F -5.6 °F 3.2 °F 92% 30.01 in 7.0 mi SSW 5.8 mph - N/A Snow Light Snow
8:55 PM 5.0 °F -2.1 °F 3.2 °F 92% 30.01 in 7.0 mi WNW 3.5 mph - N/A Snow Light Snow
9:15 PM 5.0 °F - 3.2 °F 92% 30.02 in 5.0 mi Calm Calm - N/A Snow Light Snow
9:34 PM 6.8 °F -5.9 °F 5.0 °F 92% 30.03 in 10.0 mi NW 8.1 mph - N/A Snow Light Snow
9:55 PM 6.8 °F -6.9 °F 5.0 °F 92% 30.03 in 10.0 mi NNW 9.2 mph - N/A   Overcast
10:15 PM 8.6 °F -6.3 °F 6.8 °F 92% 30.02 in 10.0 mi NNW 11.5 mph - N/A   Overcast
10:34 PM 8.6 °F -5.5 °F 6.8 °F 92% 30.03 in 10.0 mi NNW 10.4 mph - N/A   Overcast
10:55 PM 8.6 °F -4.7 °F 6.8 °F 92% 30.03 in 7.0 mi NNW 9.2 mph - N/A Snow Light Snow
11:15 PM 8.6 °F -4.7 °F 6.8 °F 92% 30.04 in 7.0 mi NNW 9.2 mph - N/A Snow Light Snow
11:34 PM 8.6 °F -4.7 °F 6.8 °F 92% 30.05 in 4.0 mi NNW 9.2 mph - N/A Snow Light Snow
11:55 PM 8.6 °F -4.7 °F 6.8 °F 92% 30.05 in 5.0 mi North 9.2 mph - N/A Snow Light Snow